PABA

Details ICAO PABA (BTI)
Name BARTER ISLAND Kaktovik
Region USA (Alaska)
Timezone America/Anchorage (UTC-8.0)
Plans Departing 8
Arriving 7
Stats Elevation 2 ft / 1 m (AMSL)
Location 70.137118° -143.581356°
Runways 2
Magnetic Variation 19.424° E
Sunrise Unknown / Unknown
Sunset Unknown / Unknown
Advertisement - Login to hide

Runways

ID Width Length Bearing (true) Bearing (mag) Surface Threshold Offset Overrun Length
06 100 ft / 30 m 4,800 ft / 1,463 m 92.94° 73.52° Gravel 0 ft / 0 m 0 ft / 0 m
07 98 ft / 30 m 4,798 ft / 1,463 m 92.94° 73.52° Gravel 0 ft / 0 m 0 ft / 0 m
24 100 ft / 30 m 4,800 ft / 1,463 m 272.97° 253.55° Gravel 0 ft / 0 m 0 ft / 0 m
25 98 ft / 30 m 4,798 ft / 1,463 m 272.97° 253.55° Gravel 0 ft / 0 m 0 ft / 0 m

Map

Weather


0- 5 10 15 20 25 30 35+ Temperature / ° C

Clouds and Precipitation
Forecast for 2018-05-25 12:00 UTC. Updated 4 hours ago

Ground ~20,000 ft ~40,000 ft Winds

METAR

PABA 251452Z 05013KT 7SM OVC005 M04/M05 A2992

TAF

Not found

Frequencies

Recorded 120.00 MHz AWOS
Unicom 122.80 MHz 07/25 REIL
Approach 120.60 MHz Anchorage ARTCC
Unicom 126.20 MHz CTAF
Tower 122.00 MHz DeadHorse FSS
Warning: Do not use this data for real-world aviation or navigation. No guarantee of current accuracy is given.